Location: *
(40.7873°S, 98.7174°E)
Time: 12:53:07
(UTC+00:00)

NOSS 3-4 (C) - Visible Passes

Search period start: 26 September 2022 00:00
Search period end: 06 October 2022 00:00
Orbit: 845 x 1366 km, 63.4° (Epoch: 24 September)

Date Brightness Start Highest point End Pass type
(mag) Time Alt. Az. Time Alt. Az. Time Alt. Az.
26 Sep 4.8 19:25:16 46° ENE 19:25:16 46° ENE 19:32:37 10° SE visible
26 Sep 4.5 21:12:43 34° W 21:16:03 50° SW 21:23:46 10° SSE visible
27 Sep 5.5 18:42:03 28° E 18:42:03 28° E 18:47:14 10° SE visible
27 Sep 4.1 20:29:30 59° WNW 20:30:58 70° SW 20:39:01 10° SSE visible
27 Sep 5.4 22:17:09 10° W 22:23:27 23° SSW 22:29:26 10° SSE visible
28 Sep 6.1 17:58:46 16° E 17:58:46 16° E 18:01:16 10° ESE visible
28 Sep 4.1 19:46:13 84° E 19:46:13 84° E 19:54:11 10° SE visible
28 Sep 5.1 21:33:39 20° W 21:37:58 30° SW 21:44:45 10° SSE visible
29 Sep 4.7 19:02:53 51° ESE 19:02:53 51° ESE 19:09:12 10° SE visible
29 Sep 4.7 20:50:19 34° WSW 20:52:40 41° SW 21:00:06 10° SSE visible
30 Sep 5.4 18:19:29 30° ESE 18:19:29 30° ESE 18:24:00 10° SE visible
30 Sep 4.3 20:06:55 56° WSW 20:07:30 57° SW 20:15:23 10° SSE visible
30 Sep 5.6 21:54:37 10° WSW 22:00:19 20° SSW 22:05:43 10° SSE visible
01 Oct 6.0 17:36:03 18° ESE 17:36:03 18° ESE 17:38:26 10° ESE visible
01 Oct 4.2 19:23:29 70° S 19:23:29 70° S 19:30:36 10° SSE visible
01 Oct 5.4 21:10:55 19° WSW 21:14:45 25° SW 21:21:04 10° SSE visible
02 Oct 4.7 18:40:00 50° SE 18:40:00 50° SE 18:45:43 10° SE visible
02 Oct 5.0 20:27:26 31° WSW 20:29:20 34° SW 20:36:24 10° SSE visible
02 Oct 6.0 22:19:02 10° SW 22:23:01 14° SSW 22:26:50 10° SSE visible
03 Oct 5.4 17:56:29 32° ESE 17:56:29 32° ESE 18:00:40 10° SE visible
03 Oct 4.6 19:43:54 46° SW 19:44:05 46° SW 19:51:43 10° SSE visible
03 Oct 5.8 21:32:10 10° WSW 21:37:14 17° SSW 21:42:03 10° SSE visible
04 Oct 5.9 17:12:55 19° ESE 17:12:55 19° ESE 17:15:21 10° SE visible
04 Oct 4.5 19:00:20 57° S 19:00:20 57° S 19:06:59 10° SSE visible
04 Oct 5.6 20:47:45 16° WSW 20:51:34 22° SSW 20:57:21 10° SSE visible
05 Oct 6.3 16:29:19 11° ESE 16:29:19 11° ESE 16:29:32 10° ESE visible
05 Oct 4.8 18:16:44 49° SE 18:16:44 49° SE 18:22:10 10° SE visible
05 Oct 5.3 20:04:08 26° WSW 20:06:03 28° SW 20:12:42 10° SSE visible
05 Oct 6.1 21:56:37 10° SW 22:00:02 13° S 22:03:20 10° SSE visible
